Location: Contre
(49.7477°N, 2.0963°E)
Time: 01:33:07
(UTC+00:00)

BlueWalker 3 - Visible Passes

Search period start: 05 March 2024 00:00
Search period end: 15 March 2024 00:00
Orbit: 485 x 499 km, 53.2° (Epoch: 04 March)

Date Brightness Start Highest point End Pass type
(mag) Time Alt. Az. Time Alt. Az. Time Alt. Az.
05 Mar 4.7 19:41:59 10° WSW 19:43:35 12° SW 19:45:10 10° SSW visible
06 Mar 4.7 19:17:56 10° WSW 19:19:40 13° SW 19:21:22 10° SSW visible
07 Mar 4.7 18:53:53 10° WSW 18:55:44 13° SW 18:57:33 10° SSW visible
08 Mar 4.8 18:29:49 10° W 18:31:46 14° SW 18:33:43 10° SSW visible
